ALLMENDG1 Weather Reports


time (UTC)temp
F
wind
direction
speed
knots
gust
knots
rain 1hr
in
rain 24hr
in
rain mn
in
humidity
%
barometer
mb
20260506170215 53 292 3.5 0.0 0.00 0.00 0.19 90 1006.0
20260506163210 53 234 6.1 0.0 0.00 0.00 0.15 89 1006.2
20260506160210 54 270 1.7 0.0 0.00 0.00 0.07 85 1006.1
20260506153210 56 256 8.7 0.0 0.00 0.00 0.03 79 1005.5
20260506150210 63 261 10.4 0.0 0.00 0.00 0.00 62 1004.0
20260506143210 64 240 3.5 0.0 0.00 0.00 0.00 64 1004.1
20260506140210 63 206 0.9 0.0 0.00 0.00 0.00 64 1004.0
20260506133211 63 219 4.3 0.0 0.00 0.00 0.00 64 1004.3
20260506130211 64 17 0.9 0.0 0.00 0.00 0.00 60 1004.3
20260506123210 64 197 1.7 0.0 0.00 0.00 0.00 61 1004.2
20260506120210 62 271 1.7 0.0 0.00 0.00 0.00 63 1004.3
20260506113217 62 132 0.0 0.0 0.00 0.00 0.00 67 1004.2
20260506110210 60 30 1.7 0.0 0.00 0.00 0.00 73 1004.5
20260506100213 60 178 2.6 0.0 0.00 0.00 0.00 76 1005.2
20260506093211 59 227 1.7 0.0 0.00 0.00 0.00 78 1005.2
20260506090211 57 158 0.9 0.0 0.00 0.00 0.00 82 1005.0
20260506083211 56 206 0.9 0.0 0.00 0.00 0.00 85 1005.1
20260506080212 55 139 0.0 0.0 0.00 0.00 0.00 87 1005.2
20260506073211 55 184 1.7 0.0 0.00 0.00 0.00 88 1005.6
20260506070212 54 163 0.9 0.0 0.00 0.00 0.00 89 1005.4
20260506060210 46 128 0.0 0.0 0.00 0.00 0.00 91 1005.4
20260506050211 46 128 0.9 0.0 0.00 0.00 0.00 91 1005.7
20260506043211 45 110 0.0 0.0 0.00 0.00 0.00 91 1005.9
20260506040211 46 149 0.0 0.0 0.00 0.00 0.00 91 1006.0
20260506033211 47 149 0.0 0.0 0.00 0.00 0.00 90 1006.2
20260506030212 47 151 0.0 0.0 0.00 0.00 0.00 90 1006.4
20260506023211 49 202 0.0 0.0 0.00 0.00 0.00 90 1006.6
20260506020212 50 202 0.0 0.0 0.00 0.00 0.00 91 1006.5
20260506013211 50 199 1.7 0.0 0.00 0.00 0.00 91 1007.0
20260506010212 49 115 0.0 0.0 0.00 0.00 0.00 90 1007.1
20260506003209 50 114 0.0 0.0 0.00 0.00 0.00 90 1006.8
20260506000211 50 144 0.9 0.0 0.00 0.00 0.00 90 1007.3
20260505233209 50 105 0.0 0.0 0.00 0.00 0.00 87 1007.5
20260505230209 51 94 0.0 0.0 0.00 0.00 0.00 86 1007.6
20260505223209 53 229 0.0 0.0 0.00 0.00 0.00 87 1007.6
20260505220209 53 254 7.0 0.0 0.00 0.00 0.00 87 1007.5
20260505213211 54 237 4.3 0.0 0.00 0.00 0.00 86 1007.6
20260505210215 55 257 7.8 0.0 0.00 0.00 0.00 85 1007.6
20260505203209 56 246 9.6 0.0 0.00 0.00 0.00 84 1007.4
20260505200210 58 202 6.1 0.0 0.00 0.00 0.00 82 1007.2
20260505193209 59 241 2.6 0.0 0.00 0.00 0.00 78 1007.0
20260505190215 60 312 1.7 0.0 0.00 0.00 0.00 75 1006.3
20260505183212 61 355 3.5 0.0 0.00 0.00 0.00 71 1006.3
20260505180211 62 236 2.6 0.0 0.00 0.00 0.00 69 1005.8
20260505173210 62 253 4.3 0.0 0.00 0.00 0.00 67 1005.6